This is the latest recevied weather packets stored in our database for station/object N5LSN. If no packets are shown the sender has not sent any weather packets the latest 10 day(s).
| Time | Temp. | Humidity | Pressure | Rain* | Wind** | Luminosity | Snow |
|---|---|---|---|---|---|---|---|
| 1777851526 | 25° C | 46% | 1015.7 hPa | 0 mm | - | 63 W/m² | - |
| 1777851222 | 25° C | 45% | 1015.6 hPa | 0 mm | - | 102 W/m² | - |
| 1777850918 | 25° C | 46% | 1015.5 hPa | 0 mm | - | 52 W/m² | - |
| 1777850615 | 25° C | 46% | 1015.6 hPa | 0 mm | - | 54 W/m² | - |
| 1777850307 | 25° C | 46% | 1015.8 hPa | 0 mm | - | 72 W/m² | - |
| 1777850004 | 25.56° C | 45% | 1015.5 hPa | 0 mm | - | 118 W/m² | - |
| 1777849700 | 25.56° C | 45% | 1015.4 hPa | 0 mm | - | 147 W/m² | - |
| 1777849397 | 25.56° C | 45% | 1015.5 hPa | 0 mm | - | 58 W/m² | - |
| 1777849094 | 25.56° C | 43% | 1015.4 hPa | 0 mm | - | 57 W/m² | - |
| 1777848790 | 25.56° C | 44% | 1015.4 hPa | 0 mm | - | 60 W/m² | - |
| 1777848487 | 25.56° C | 42% | 1015.5 hPa | 0 mm | - | 192 W/m² | - |
| 1777848184 | 26.11° C | 42% | 1015.6 hPa | 0 mm | - | 166 W/m² | - |
| 1777847882 | 25.56° C | 42% | 1015.7 hPa | 0 mm | - | 248 W/m² | - |
| 1777847579 | 26.67° C | 42% | 1015.6 hPa | 0 mm | - | 282 W/m² | - |
| 1777847275 | 26.11° C | 44% | 1015.7 hPa | 0 mm | - | 267 W/m² | - |
| 1777846973 | 26.11° C | 43% | 1015.6 hPa | 0 mm | - | 179 W/m² | - |
| 1777846672 | 25.56° C | 45% | 1015.9 hPa | 0 mm | - | 69 W/m² | - |
| 1777846369 | 25.56° C | 45% | 1016 hPa | 0 mm | - | 68 W/m² | - |
| 1777846065 | 25.56° C | 44% | 1016 hPa | 0 mm | - | 74 W/m² | - |
| 1777845762 | 25.56° C | 44% | 1015.9 hPa | 0 mm | - | 81 W/m² | - |
| 1777845459 | 25.56° C | 42% | 1016 hPa | 0 mm | - | 110 W/m² | - |
| 1777845156 | 25.56° C | 45% | 1015.9 hPa | 0 mm | - | 88 W/m² | - |
| 1777844854 | 25.56° C | 43% | 1016.1 hPa | 0 mm | - | 74 W/m² | - |
| 1777844551 | 25.56° C | 42% | 1016.1 hPa | 0 mm | - | 151 W/m² | - |
| 1777844249 | 25.56° C | 42% | 1016.2 hPa | 0 mm | - | 145 W/m² | - |
* Rain latest hour (hover to see other rain measurements)
** Current wind speed in m/s (hover to see current wind gust speed)